Погода в Джокьякарте

Индонезия     7°47′48″S   110°21′52″E
темп.,
°C
ветер,
м/с
пор.,
м/с
влажн.,
%
обл.,
%
осадки,
мм/ч
давл.,
гПа
погр.,
м
19 сентября, вс
вс1901:00+23з119521 0.5 101235
04:00+22з119669 0.0 101136
07:00+24ююв148426 0.1 1013528
10:00+29ююв455764 0.1 10121605
13:00+28ю466399 0.2 1010681
16:00+27ю566759 0.2 10101033
19:00+23ююв129020 0.5 1013160
22:00+23ююз129355 0.7 1014131
20 сентября, пн
пн2001:00+23ююз129084 1.0 101270
04:00+22ююз129017 0.0 101244
07:00+24юв268296 0.1 1014643
10:00+29ююв345796 0.1 10121551
13:00+28ю456767 0.4 10101100
16:00+26ю4674100 0.4 1009508
19:00+23ююв1288100 0.6 101258
22:00+22зсз119176 0.1 101321
21 сентября, вт
вт2101:00+22зсз119262 0.3 101134
04:00+22сз129439 0.1 101126
07:00+24зсз1185100 0.1 1012229
10:00+29ююв2358100 0.0 10121277
13:00+27ююз3573100 0.1 1009462
16:00+25ю2382100 1.1 1010359
19:00+24ююв129189 1.7 101296
22:00+23ссз119354 1.0 101317
22 сентября, ср
ср2201:00+23зсз229498 1.3 101162
04:00+22сз119561 0.0 101022
07:00+24вюв0084100 0.0 1012187
10:00+30ю125814 0.0 10111192
13:00+31ююз435679 0.2 10081433
16:00+27ююз337598 3.8 1008419
19:00+24ююз1291100 9.2 101158
22:00+24ссз009273 0.0 101211
23 сентября, чт
чт2301:00+23ссв1192100 0.0 101012
04:00+22ссв119171 0.0 101111
07:00+25св1178100 0.0 1012176
10:00+30вюв235296 0.0 10111261
13:00+31ю3448100 0.0 10081584
16:00+29ю566396 0.0 1008948
19:00+24ю118311 0.4 101156
22:00+23ю128711 0.0 101251